This demonstration page uses our WeatherBlox Daily Observations layout. Learn more.

Left ArrowRight Arrow

Hourly Observations for June 26, 2022

Temp ( °F °C ) Dew Point ( °F °C ) Humidity (%) Winds ( mph kmh ) Pressure ( in mb ) Visibility ( mi km ) Precip ( " mm )
12:53 am 00:53 Mostly Clear 71 21.7 67 19.4 87 87 Calm 30.01 1016 10 16 0.00 0.00
1:53 am 01:53 Mostly Clear 72 22.2 68 20 87 87 Calm 30.01 1016 10 16 0.00 0.00
2:53 am 02:53 Clear 70 21.1 69 20.6 97 97 Calm 30.00 1016 10 16 0.00 0.00
3:53 am 03:53 Partly Cloudy 70 21.1 68 20 93 93 Calm 30.01 1016 10 16 0.00 0.00
4:53 am 04:53 Cloudy 70 21.1 69 20.6 97 97 Calm 30.01 1016 10 16 0.00 0.00
5:53 am 05:53 Mostly Clear 71 21.7 69 20.6 94 94 Calm 30.01 1016 10 16 0.00 0.00
6:53 am 06:53 Partly Cloudy 75 23.9 70 21.1 84 84 SE 3 6 29.98 1015 10 16 0.00 0.00
7:53 am 07:53 Sunny 77 25 71 21.7 82 82 VRB 3 6 30.02 1017 10 16 0.00 0.00
8:53 am 08:53 Sunny 79 26.1 71 21.7 77 77 VRB 3 6 30.02 1017 10 16 0.00 0.00
9:53 am 09:53 Sunny 77 25 70 21.1 79 79 Calm 30.03 1017 10 16 0.00 0.00
10:53 am 10:53 Sunny 80 26.7 70 21.1 71 71 Calm 30.04 1017 10 16 0.00 0.00
11:53 am 11:53 Sunny 82 27.8 70 21.1 67 67 Calm 30.05 1018 10 16 0.00 0.00
12:53 pm 12:53 Mostly Sunny 86 30 68 20 55 55 VRB 6 9 30.06 1018 10 16 0.00 0.00
1:53 pm 13:53 Mostly Cloudy 85 29.4 69 20.6 59 59 VRB 3 6 30.05 1018 10 16 0.00 0.00
2:53 pm 14:53 Cloudy 83 28.3 70 21.1 65 65 VRB 5 7 30.03 1017 10 16 0.00 0.00
3:53 pm 15:53 Cloudy with Light Rain 78 25.6 72 22.2 82 82 WNW 3 6 30.01 1016 10 16 0.07 1.78
4:53 pm 16:53 Mostly Cloudy 82 27.8 72 22.2 72 72 W 6 9 30.00 1016 10 16 0.00 0.00
5:53 pm 17:53 Cloudy with Light Rain 81 27.2 72 22.2 74 74 NNW 10 17 30.00 1016 10 16 0.00 0.00
6:53 pm 18:53 Mostly Sunny 80 26.7 72 22.2 76 76 Calm 29.98 1015 10 16 0.00 0.00
7:53 pm 19:53 Sunny 79 26.1 72 22.2 79 79 WSW 3 6 29.99 1016 10 16 0.00 0.00
8:53 pm 20:53 Cloudy 77 25 72 22.2 85 85 Calm 30.01 1016 10 16 0.00 0.00
9:53 pm 21:53 Cloudy with Light Rain 75 23.9 73 22.8 94 94 Calm 30.04 1017 10 16 0.04 1.02
10:53 pm 22:53 Mostly Cloudy 73 22.8 71 21.7 94 94 W 3 6 30.06 1018 10 16 0.00 0.00
11:53 pm 23:53 Partly Cloudy 72 22.2 64 17.8 76 76 WNW 8 13 30.08 1019 10 16 0.00 0.00

Powered by AerisWeather